{"data":{"norad_id":60496,"intl_designator":"2024-149AE","name":"TYCHE","alt_names":[],"object_type":"PAYLOAD","status":"ACTIVE","operator":null,"country":"UK","launch_date":"2024-08-16","launch_site_code":"AFWTR","launch_vehicle":null,"mission":null,"orbit_class":"UNKNOWN","rcs_meters":null,"size_class":null,"mass_kg":null,"dimensions":null,"purposes":[],"wikipedia_slug":null,"has_3d_model":false,"image_url":null,"decayed_at":null,"tle_current":{"epoch":"2026-05-25T04:24:14.003424Z","epoch_age_seconds":66137,"freshness":"FRESH","line1":"1 60496U 24149AE  26145.18349541  .00004038  00000+0  16055-3 0  9992","line2":"2 60496  97.3754 223.3081 0002678  38.0817 322.0611 15.25857002 98390","mean_motion":15.25857002,"eccentricity":0.0002678,"inclination_deg":97.3754,"raan_deg":223.3081,"arg_perigee_deg":38.0817,"mean_anomaly_deg":322.0611,"bstar":0.00016055,"rev_number":9839,"period_min":94.373194743186,"perigee_km":486.37441757682,"apogee_km":490.05203475796,"semimajor_km":6866.3502261674,"source":"CELESTRAK","updated_at":"2026-05-25T13:38:02.116966Z"}}}